User: anonymous   Login
Location: Mohawk View
(42.7837°N, 73.7885°W)
Time: 10:04:24
(UTC+00:00)
Language:

Cosmos 1553 Rocket - Orbit

View from above orbital plane
View from above orbital plane
View from above satellite
View from above satellite

Ground track
Ground track

The orbit data is extracted from the following two-line orbital elements,

1 14974U 84046B   21260.03063293 -.00000085  00000-0 -10058-3 0  9996
2 14974  82.9328  67.0051 0044562 336.9670 143.4990 13.76941444875882
Epoch (UTC): 17 September 2021 00:44:06
Eccentricity: 0.0044562
inclination: 82.9328°
perigee height: 942 km
apogee height: 1007 km
right ascension of ascending node: 67.0051°
argument of perigee: 336.9670°
revolutions per day: 13.76941444
mean anomaly at epoch: 143.4990°
orbit number at epoch: 87588

The dashed part of the orbit path shows where the satellite is in the earth's shadow,  

DLR